Home   Weather   Eberswalde   Past weeks

Flag for Germany Past Weather in Eberswalde, Brandenburg, Germany — Yesterday and Last 2 Weeks

Now
46 °F

Fog.


Feels Like: 41 °F
Forecast: 45 / 47 °F
Wind: 12 mph from West

Location: Berlin-Tegel

Current Time: Dec 9, 2016 at 12:41:08 pm

Latest Report: Dec 9, 2016 at 12:20 pm


Visibility: 2 mi

Pressure: 30.21 "Hg

Humidity: 93%

Dew Point: 45 °F

Location of EberswaldeLocation

Past Weather in Eberswalde — Graph

°F

Eberswalde Temperature Yesterday

Maximum temperature yesterday: 52 °F (at 1:20 pm)
Minimum temperature yesterday: 41 °F (at 12:20 am)
Average temperature yesterday: 46 °F

High & Low Weather Summary for the Past Weeks

 TemperatureHumidityPressure
High52 °F (Dec 8, 1:20 pm)100% (Nov 24, 10:50 pm)30.57 "Hg (Nov 24, 10:50 pm)
Low19 °F (Nov 29, 1:20 am)56% (Nov 28, 2:20 pm)29.74 "Hg (Dec 1, 10:20 pm)
Average35 °F87%30.25 "Hg
* Reported Nov 24 11:20 am — Dec 9 11:20 am, Eberswalde, Weather by CustomWeather, © 2016

Note: Actual official high and low records may vary slightly from our data, if they occured in-between our weather recording intervals... More about our weather records

Advertising

Eberswalde Weather History for the Previous 24 Hours

Scroll right to see more
 ConditionsComfort  
Time TempWeatherWind HumidityBarometerVisibility
11:20 am
Fri, Dec 9
46 °FPartly sunny.10 mph93%30.21 "HgN/A
10:50 am45 °FPartly sunny.10 mph93%30.21 "Hg6 mi
10:20 am45 °FPartly sunny.14 mph93%30.21 "Hg4 mi
9:50 am45 °FPartly sunny.16 mph93%30.21 "Hg4 mi
9:20 am45 °FPartly sunny.13 mph93%30.21 "Hg4 mi
8:50 am45 °FDrizzle. Partly sunny.12 mph93%30.21 "Hg4 mi
8:20 am45 °FPartly sunny.13 mph93%30.21 "Hg5 mi
7:50 am43 °FPassing clouds.12 mph93%30.18 "Hg6 mi
7:20 am43 °FPassing clouds.10 mph93%30.18 "Hg4 mi
6:50 am43 °FLight rain. Low clouds.9 mph93%30.18 "Hg4 mi
6:20 am43 °FLight rain. Low clouds.10 mph93%30.21 "Hg2 mi
5:20 am45 °FOvercast.13 mph81%30.21 "HgN/A
4:50 am45 °FOvercast.13 mph76%30.21 "HgN/A
4:20 am45 °FOvercast.12 mph76%30.21 "HgN/A
3:50 am45 °FOvercast.13 mph71%30.21 "HgN/A
3:20 am45 °FOvercast.10 mph66%30.21 "HgN/A
2:50 am45 °FOvercast.14 mph66%30.21 "HgN/A
2:20 am45 °FPassing clouds.12 mph61%30.21 "HgN/A
1:50 am45 °FPassing clouds.12 mph61%30.21 "HgN/A
1:20 am45 °FPassing clouds.10 mph66%30.21 "HgN/A
12:50 am43 °FPassing clouds.9 mph71%30.21 "HgN/A
12:20 am41 °FClear.9 mph70%30.21 "Hg10 mi
11:50 pm
Thu, Dec 8
41 °FClear.8 mph70%30.21 "Hg10 mi
11:20 pm43 °FPassing clouds.7 mph66%30.21 "HgN/A
10:50 pm46 °FClear.14 mph62%30.21 "Hg10 mi
10:20 pm46 °FClear.14 mph62%30.21 "Hg10 mi
9:50 pm48 °FClear.15 mph62%30.21 "Hg10 mi
9:20 pm46 °FClear.15 mph66%30.21 "Hg10 mi
8:50 pm46 °FClear.12 mph66%30.24 "Hg10 mi
8:20 pm48 °FPartly cloudy.9 mph62%30.21 "HgN/A
7:50 pm48 °FMostly cloudy.12 mph62%30.24 "HgN/A
7:20 pm48 °FMostly cloudy.14 mph62%30.24 "HgN/A
6:50 pm50 °FPassing clouds.10 mph58%30.21 "HgN/A
6:20 pm50 °FPassing clouds.12 mph62%30.24 "HgN/A
5:50 pm50 °FPassing clouds.12 mph62%30.24 "HgN/A
5:20 pm50 °FPartly cloudy.10 mph62%30.24 "HgN/A
4:50 pm50 °FClear.13 mph62%30.21 "Hg10 mi
4:20 pm48 °FClear.13 mph66%30.21 "Hg10 mi
3:50 pm50 °FSunny.14 mph62%30.21 "Hg10 mi
3:20 pm50 °FSunny.15 mph62%30.21 "Hg10 mi
2:50 pm50 °FBroken clouds.16 mph62%30.21 "HgN/A
2:20 pm52 °FPartly sunny.17 mph58%30.24 "HgN/A
1:50 pm52 °FPartly sunny.16 mph58%30.24 "HgN/A
1:20 pm52 °FBroken clouds.17 mph58%30.24 "HgN/A
12:50 pm50 °FBroken clouds.18 mph62%30.24 "HgN/A
12:20 pm50 °FSunny.16 mph62%30.24 "Hg10 mi
Weather by CustomWeather, © 2016

See weather overviewHow to use our weather pages